Time,TemperatureF,DewpointF,PressureIn,WindDirection,WindDirectionDegrees,WindSpeedMPH,WindSpeedGustMPH,Humidity,HourlyPrecipIn,Conditions,Clouds,dailyrainin,SoftwareType,DateUTC
2013-10-02 00:04:00,37.2,35.4,29.72,WNW,286,0.0,0.0,93,0.00,,---,0.00,VWS V14.01,2013-10-02 08:04:00,
2013-10-02 00:34:00,36.8,35.2,29.71,WNW,286,0.0,0.0,94,0.00,,---,0.00,VWS V14.01,2013-10-02 08:34:00,
2013-10-02 01:04:00,36.8,35.2,29.73,WNW,286,0.0,0.0,94,0.00,,---,0.00,VWS V14.01,2013-10-02 09:04:00,
2013-10-02 01:34:00,37.6,36.0,29.73,WNW,286,0.0,0.0,94,0.00,,---,0.00,VWS V14.01,2013-10-02 09:34:00,
2013-10-02 02:04:00,37.9,36.3,29.72,WNW,286,0.0,0.0,94,0.00,,---,0.00,VWS V14.01,2013-10-02 10:04:00,
2013-10-02 02:34:00,37.9,36.3,29.72,WNW,286,0.0,0.0,94,0.00,,---,0.00,VWS V14.01,2013-10-02 10:34:00,
2013-10-02 03:04:00,38.5,36.9,29.72,WNW,286,0.0,0.0,94,0.00,,---,0.00,VWS V14.01,2013-10-02 11:04:00,
2013-10-02 03:34:00,39.2,37.6,29.72,WNW,286,0.0,0.0,94,0.00,,---,0.00,VWS V14.01,2013-10-02 11:34:00,
2013-10-02 04:04:00,39.5,38.2,29.72,WNW,286,0.0,0.0,95,0.00,,---,0.00,VWS V14.01,2013-10-02 12:04:00,
2013-10-02 04:34:00,39.9,38.3,29.72,WNW,286,0.0,0.0,94,0.00,,---,0.00,VWS V14.01,2013-10-02 12:34:00,
2013-10-02 05:04:00,40.0,38.7,29.72,WNW,286,0.0,0.0,95,0.00,,---,0.00,VWS V14.01,2013-10-02 13:04:00,
2013-10-02 05:34:00,40.0,38.7,29.72,WNW,286,0.0,0.0,95,0.00,,---,0.00,VWS V14.01,2013-10-02 13:34:00,
2013-10-02 06:04:00,38.9,37.6,29.72,WNW,286,0.0,0.0,95,0.00,,---,0.00,VWS V14.01,2013-10-02 14:04:00,
2013-10-02 06:34:00,37.4,36.1,29.72,WNW,286,0.0,0.0,95,0.00,,---,0.00,VWS V14.01,2013-10-02 14:34:00,
2013-10-02 07:04:00,37.0,35.7,29.72,WNW,286,0.0,0.0,95,0.00,,---,0.00,VWS V14.01,2013-10-02 15:04:00,
2013-10-02 07:34:00,37.0,35.7,29.73,WNW,286,0.0,0.0,95,0.00,,---,0.00,VWS V14.01,2013-10-02 15:34:00,
2013-10-02 08:04:00,37.1,35.8,29.74,WNW,286,0.0,0.0,95,0.00,,---,0.00,VWS V14.01,2013-10-02 16:04:00,
2013-10-02 08:34:00,38.3,37.0,29.74,WNW,286,0.0,0.0,95,0.00,,---,0.00,VWS V14.01,2013-10-02 16:34:00,
2013-10-02 09:04:00,39.3,38.0,29.75,WNW,286,0.0,0.0,95,0.00,,---,0.00,VWS V14.01,2013-10-02 17:04:00,
2013-10-02 09:34:00,40.1,38.8,29.75,WNW,286,0.0,0.0,95,0.00,,---,0.00,VWS V14.01,2013-10-02 17:34:00,
2013-10-02 10:04:00,41.2,39.9,29.75,WNW,286,0.0,0.0,95,0.00,,---,0.00,VWS V14.01,2013-10-02 18:04:00,
2013-10-02 10:34:00,41.8,40.5,29.75,WNW,286,0.0,0.0,95,0.00,,---,0.00,VWS V14.01,2013-10-02 18:34:00,
2013-10-02 11:04:00,42.9,41.6,29.75,WNW,286,0.0,2.0,95,0.00,,---,0.00,VWS V14.01,2013-10-02 19:04:00,
2013-10-02 11:34:00,44.6,43.3,29.75,WNW,286,0.0,2.0,95,0.00,,---,0.00,VWS V14.01,2013-10-02 19:34:00,
2013-10-02 12:04:00,45.0,43.4,29.75,WNW,286,0.0,2.0,94,0.00,,---,0.00,VWS V14.01,2013-10-02 20:04:00,
2013-10-02 12:34:00,46.7,43.3,29.75,NW,311,3.0,5.0,88,0.00,,---,0.00,VWS V14.01,2013-10-02 20:34:00,
2013-10-02 13:04:00,46.1,41.2,29.75,NE,48,0.0,5.0,83,0.00,,---,0.00,VWS V14.01,2013-10-02 21:04:00,
2013-10-02 13:34:00,46.5,41.3,29.75,NW,315,1.0,4.0,82,0.00,,---,0.00,VWS V14.01,2013-10-02 21:34:00,
2013-10-02 14:04:00,47.6,41.4,29.75,NW,319,1.0,5.0,79,0.00,,---,0.00,VWS V14.01,2013-10-02 22:04:00,
2013-10-02 14:34:00,48.1,41.2,29.74,NW,318,2.0,5.0,77,0.00,,---,0.00,VWS V14.01,2013-10-02 22:34:00,
2013-10-02 15:04:00,49.2,41.6,29.74,WNW,289,1.0,5.0,75,0.00,,---,0.00,VWS V14.01,2013-10-02 23:04:00,
2013-10-02 15:34:00,49.1,40.5,29.73,NW,322,0.0,6.0,72,0.00,,---,0.00,VWS V14.01,2013-10-02 23:34:00,
2013-10-02 16:04:00,49.7,38.0,29.73,NNW,331,0.0,4.0,64,0.00,,---,0.00,VWS V14.01,2013-10-03 00:04:00,
2013-10-02 16:34:00,49.2,39.8,29.71,NNW,337,0.0,7.0,70,0.00,,---,0.00,VWS V14.01,2013-10-03 00:34:00,
2013-10-02 17:04:00,49.6,36.3,29.71,SW,234,0.0,5.0,60,0.00,,---,0.00,VWS V14.01,2013-10-03 01:04:00,
2013-10-02 17:34:00,49.6,35.9,29.71,WSW,244,0.0,4.0,59,0.00,,---,0.00,VWS V14.01,2013-10-03 01:34:00,
2013-10-02 18:04:00,49.2,35.5,29.71,NNW,345,0.0,6.0,59,0.00,,---,0.00,VWS V14.01,2013-10-03 02:04:00,
2013-10-02 18:34:00,47.7,34.9,29.70,NNW,346,1.0,4.0,61,0.00,,---,0.00,VWS V14.01,2013-10-03 02:34:00,
2013-10-02 19:04:00,44.3,35.9,29.71,NNW,348,0.0,2.0,72,0.00,,---,0.00,VWS V14.01,2013-10-03 03:04:00,
2013-10-02 19:34:00,40.7,35.3,29.70,NNW,348,0.0,0.0,81,0.00,,---,0.00,VWS V14.01,2013-10-03 03:34:00,
2013-10-02 20:04:00,39.7,34.4,29.69,NNW,348,0.0,0.0,81,0.00,,---,0.00,VWS V14.01,2013-10-03 04:04:00,
2013-10-02 20:34:00,39.4,34.7,29.69,NNW,348,0.0,1.0,83,0.00,,---,0.00,VWS V14.01,2013-10-03 04:34:00,
2013-10-02 21:04:00,37.7,33.9,29.69,NNW,348,0.0,0.0,86,0.00,,---,0.00,VWS V14.01,2013-10-03 05:04:00,
2013-10-02 21:34:00,36.9,33.7,29.68,NNW,348,0.0,0.0,88,0.00,,---,0.00,VWS V14.01,2013-10-03 05:34:00,
2013-10-02 22:04:00,36.6,33.7,29.67,NNW,348,0.0,0.0,89,0.00,,---,0.00,VWS V14.01,2013-10-03 06:04:00,
2013-10-02 22:34:00,36.5,33.8,29.67,NNW,348,0.0,0.0,90,0.00,,---,0.00,VWS V14.01,2013-10-03 06:34:00,
2013-10-02 23:04:00,36.6,34.0,29.66,NNW,348,0.0,0.0,90,0.00,,---,0.00,VWS V14.01,2013-10-03 07:04:00,
2013-10-02 23:34:00,37.8,35.4,29.66,NNW,348,0.0,0.0,91,0.00,,---,0.00,VWS V14.01,2013-10-03 07:34:00,